Regional Weather Roundup
Issued by NWS

Home | Current Version | Previous Version | Text Only | Print | Product List | Glossary On
Versions: 1 2 3 4 5 6 7 8 9 10 11 12 13 14 15 16 17 18 19 20 21 22 23 24 25 26 27 28 29 30 31 32 33 34 35 36 37 38 39 40 41 42 43 44 45 46 47 48 49 50
000
ASUS45 KABQ 300010
RWRNM
NEW MEXICO REGIONAL WEATHER ROUNDUP
NATIONAL WEATHER SERVICE ALBUQUERQUE NM
600 PM MDT WED JUL 29 2015

NOTE: "FAIR" MEANS FEW OR NO CLOUDS BELOW 12,000 FEET AGL WITH NO
       SIGNIFICANT WEATHER OR OBSTRUCTIONS TO VISION.

      THIS PRODUCT IS RELEASED AS TWO VERSIONS.  ONE VERSION NEAR
      THE TOP OF THE HOUR CONTAINING PRELIMINARY DATA FROM ALBUQUERQUE
      AND OTHER STATIONS.  A FINAL VERSION WITH ADDITIONAL DATA IS
      ISSUED ABOUT 10 MINUTES AFTER THE HOUR.

NMZ501-503-504-510>518-300100-
NORTHWEST PLATEAU/NORTHCENTRAL MOUNTAINS

CITY           SKY/WX    TMP DP  RH WIND       PRES   REMARKS
FARMINGTON     MOSUNNY   80  42  25 SE9       30.22F
6HR MIN TEMP:  77; 6HR MAX TEMP:  86; 6HR PCP: TRACE;

LOS ALAMOS     CLOUDY    72  52  48 SW6       30.40S
SANTA FE       CLOUDY    75  52  44 S6        30.32F
6HR MIN TEMP:  69; 6HR MAX TEMP:  79; 6HR PCP: TRACE;

TAOS           CLOUDY    64  46  52 N10       30.43R
ANGEL FIRE     MOCLDY    56  53  88 CALM      30.53S

$$
NMZ402-403-502-505>509-300100-
WESTCENTRAL MOUNTAINS/SOUTHWEST MOUNTAINS

CITY           SKY/WX    TMP DP  RH WIND       PRES   REMARKS
GALLUP         CLOUDY    80  38  22 NE12      30.31S
6HR MIN TEMP:  71; 6HR MAX TEMP:  83; 6HR PCP: TRACE;

GRANTS         RAIN      58  58  98 NW7       30.42R
SILVER CITY    LGT RAIN  73  63  68 NW22      30.22S

$$
NMZ407-409-411-412-300100-
SOUTHERN DESERTS

CITY           SKY/WX    TMP DP  RH WIND       PRES   REMARKS
LORDSBURG      MOCLDY    82  55  39 E9G30     30.11R
DEMING         MOSUNNY   89  52  28 S6        30.10F
6HR MIN TEMP:  80; 6HR MAX TEMP:  92;

LAS CRUCES     TSTM      74  64  69 W8        30.14R
ALAMOGORDO     PTSUNNY   77  61  57 N8        30.11F
T OR C         MOSUNNY   89  53  29 NW6       30.14F
6HR MIN TEMP:  76; 6HR MAX TEMP:  89;


$$
NMZ519>523-300100-
CENTRAL VALLEYS/CENTRAL HIGHLANDS

CITY           SKY/WX    TMP DP  RH WIND       PRES   REMARKS
ALBUQUERQUE    CLOUDY    74  61  63 NE9       30.25F
6HR MIN TEMP:  68; 6HR MAX TEMP:  83; 6HR PCP:  0.23;

DOUBLE EAGLE   PTSUNNY   73  59  60 E6        30.29F
MORIARTY ARPT  TSTM      68  56  65 SW18G26   30.34R
6HR MIN TEMP:  68; 6HR MAX TEMP:  80;

CLINES CORNERS CLOUDY    73  53  49 SE15      30.36F
6HR MIN TEMP:  68; 6HR MAX TEMP:  77; 6HR PCP: TRACE;

BELEN          MOCLDY    76  58  54 NE7       30.25S
6HR MIN TEMP:  66; 6HR MAX TEMP:  86; 6HR PCP:  0.05;

SOCORRO        CLOUDY    82  55  39 N7        30.20R
6HR MIN TEMP:  75; 6HR MAX TEMP:  87;


$$
NMZ524>526-539-540-300100-
SOUTHCENTRAL MOUNTAINS

CITY           SKY/WX    TMP DP  RH WIND       PRES   REMARKS
RUIDOSO          N/A    N/A N/A N/A MISG        N/A

$$
NMZ527>531-300100-
NORTHEAST HIGHLANDS/NORTHEAST PLAINS

CITY           SKY/WX    TMP DP  RH WIND       PRES   REMARKS
LAS VEGAS      PTSUNNY   73  55  53 S12       30.38S
6HR MIN TEMP:  65; 6HR MAX TEMP:  76; 6HR PCP:  0.01;

RATON          RAIN      59  57  93 N3        30.42R FOG
6HR MIN TEMP:  58; 6HR MAX TEMP:  78; 6HR PCP:  0.95;

CLAYTON        MOSUNNY   81  56  42 VRB7      30.27F
6HR MIN TEMP:  74; 6HR MAX TEMP:  82;


$$
NMZ532>537-300100-
EASTCENTRAL PLAINS

CITY           SKY/WX    TMP DP  RH WIND       PRES   REMARKS
TUCUMCARI      SUNNY     82  63  52 NE6       30.18S
6HR MIN TEMP:  78; 6HR MAX TEMP:  87;

CANNON AFB     SUNNY     86  62  44 E10       30.19R
6HR MIN TEMP:  80; 6HR MAX TEMP:  88;

CLOVIS AIRPORT SUNNY     88  63  42 E9        30.19S

$$
NMZ028-029-538-300100-
SOUTHEAST PLAINS

CITY           SKY/WX    TMP DP  RH WIND       PRES   REMARKS
ROSWELL        PTSUNNY   94  56  27 SE10G20   30.09F
6HR MIN TEMP:  87; 6HR MAX TEMP:  95;

ARTESIA        MOSUNNY   93  57  29 E10       30.08F
CARLSBAD       MOSUNNY   92  59  33 NW7       30.04F
6HR MIN TEMP:  90; 6HR MAX TEMP:  97;

HOBBS          MOSUNNY   91  55  29 E13       30.10F


$$


USA.gov is the U.S. government's official web portal to all federal, state and local government web resources and services.